This demonstration page uses our WeatherBlox Daily Observations layout. Learn more.

Left ArrowRight Arrow

Hourly Observations for January 19, 2023

Temp ( °F °C ) Dew Point ( °F °C ) Humidity (%) Winds ( mph kmh ) Pressure ( in mb ) Visibility ( mi km ) Precip ( " mm )
12:55 am 00:55 Cloudy with Drizzle 33 0.5 32 0.1 97 97 N 8 13 29.63 1003 2 3 0.01 0.13
1:10 am 01:10 Cloudy with Mist and Fog 32 0 32 0 100 100 N 6 9 29.63 1003 6 10 0.00 0.00
1:31 am 01:31 Cloudy with Light Snow 32 0 32 0 100 100 N 8 13 29.63 1003 2 3 0.00 0.00
1:55 am 01:55 Cloudy with Light Snow 32 0.2 32 -0.2 97 97 N 13 20 29.63 1003 2 3 0.02 0.51
2:55 am 02:55 Cloudy with Light Snow 32 0.1 31 -0.8 94 94 N 13 20 29.65 1004 2 3 0.01 0.25
3:55 am 03:55 Cloudy with Light Snow 32 0 30 -1 93 93 N 14 22 29.65 1004 3 5 0.01 0.13
4:55 am 04:55 Cloudy with Light Snow 32 -0.2 30 -1.2 93 93 NNW 15 24 29.68 1005 3 5 0.02 0.51
5:55 am 05:55 Cloudy with Light Snow 31 -0.3 28 -2 88 88 NNW 8 13 29.72 1006 3 5 0.01 0.13
6:55 am 06:55 Cloudy with Light Snow 31 -0.7 28 -2.3 89 89 NW 13 20 29.76 1008 4 6 0.00 0.00
7:13 am 07:13 Cloudy with Light Snow 30 -1 28 -2 93 93 NW 14 22 29.76 1008 5 8 0.00 0.00
7:35 am 07:35 Cloudy with Light Snow 30 -1 28 -2 93 93 NW 15 24 29.78 1009 3 4 0.00 0.00
7:50 am 07:50 Windy with Snow Likely 30 -1 27 -3 86 86 NW 21 33 29.79 1009 2 4 0.00 0.00
7:55 am 07:55 Windy with Snow Likely 29 -1.4 26 -3.1 88 88 NW 20 31 29.79 1009 3 4 0.00 0.00
8:10 am 08:10 Cloudy with Light Snow 28 -2 25 -4 86 86 NW 16 26 29.80 1009 4 6 0.00 0.00
8:25 am 08:25 Cloudy with Light Snow 28 -2 25 -4 86 86 NW 16 26 29.82 1010 4 6 0.00 0.00
8:55 am 08:55 Windy with Snow Likely 29 -1.8 25 -4 85 85 NW 20 31 29.83 1010 3 5 0.00 0.00
9:25 am 09:25 Cloudy with Light Snow 28 -2 23 -5 80 80 NW 16 26 29.85 1011 7 11 0.00 0.00
9:55 am 09:55 Windy with Snow Likely 28 -2.2 23 -5.2 80 80 NW 21 33 29.87 1011 7 11 0.00 0.00
10:55 am 10:55 Cloudy with Light Snow 29 -1.7 23 -4.9 79 79 NW 16 26 29.90 1012 7 11 0.00 0.00
11:32 am 11:32 Cloudy 30 -1 25 -4 80 80 WNW 17 28 29.90 1013 10 16 0.00 0.00
11:55 am 11:55 Cloudy 29 -1.4 24 -4.2 81 81 WNW 17 28 29.91 1013 10 16 0.00 0.00
12:55 pm 12:55 Cloudy 30 -1.3 24 -4.5 79 79 WNW 21 33 29.92 1013 10 16 0.00 0.00
1:55 pm 13:55 Cloudy 29 -1.5 23 -5 77 77 NW 20 31 29.94 1014 10 16 0.00 0.00
2:10 pm 14:10 Cloudy 30 -1 23 -5 74 74 WNW 21 33 29.96 1014 10 16 0.00 0.00
2:55 pm 14:55 Cloudy 30 -1.2 24 -4.7 77 77 NW 18 30 29.98 1015 10 16 0.00 0.00
3:55 pm 15:55 Cloudy 30 -1.2 23 -4.9 76 76 NW 17 28 30.02 1017 10 16 0.00 0.00
4:55 pm 16:55 Cloudy 30 -1.3 23 -5.2 75 75 WNW 17 28 30.06 1018 10 16 0.00 0.00
5:55 pm 17:55 Cloudy 30 -1.3 23 -5 76 76 W 13 20 30.09 1019 10 16 0.00 0.00
6:55 pm 18:55 Cloudy 29 -1.4 23 -4.9 77 77 WNW 15 24 30.11 1020 10 16 0.00 0.00
7:55 pm 19:55 Cloudy 29 -1.5 23 -5 77 77 WNW 10 17 30.13 1020 10 16 0.00 0.00
8:25 pm 20:25 Cloudy 30 -1 23 -5 74 74 WNW 12 19 30.14 1021 10 16 0.00 0.00
8:55 pm 20:55 Cloudy 29 -1.5 21 -5.9 72 72 WNW 13 20 30.15 1021 10 16 0.00 0.00
9:55 pm 21:55 Cloudy 29 -1.6 21 -6.2 71 71 WNW 12 19 30.18 1022 10 16 0.00 0.00
10:55 pm 22:55 Cloudy 28 -2 20 -6.4 72 72 WNW 13 20 30.20 1023 10 16 0.00 0.00
11:25 pm 23:25 Cloudy 28 -2 19 -7 69 69 NW 10 17 30.20 1023 10 16 0.00 0.00
11:55 pm 23:55 Cloudy 28 -2.5 20 -6.7 73 73 NW 14 22 30.20 1023 10 16 0.00 0.00

Powered by AerisWeather